Regional Weather Roundup
Issued by NWS Sioux Falls, SD

Home | Current Version | Previous Version | Text Only | Print | Product List | Glossary On
Versions: 1 2 3 4 5 6 7 8 9 10 11 12 13 14 15 16 17 18 19 20 21 22 23 24 25 26 27 28 29 30 31 32 33 34 35 36 37 38 39 40 41 42 43 44 45 46 47 48 49 50
000
ASUS43 KFSD 260202
RWRFSD

WEATHER ROUNDUP FOR SE SOUTH DAKOTA/SW MINNESOTA/NW IOWA
NATIONAL WEATHER SERVICE SIOUX FALLS SD
900 PM CDT MON JUL 25 2016

NOTE: "FAIR" INDICATES FEW OR NO CLOUDS BELOW 12,000 FEET WITH NO
SIGNIFICANT WEATHER AND OR OBSTRUCTIONS TO VISIBILITY.


SDZ038>040-050-052>070-260300-
SOUTHEAST SOUTH DAKOTA

CITY           SKY/WX    TMP DP  RH WIND       PRES   REMARKS
BROOKINGS      CLEAR     76  66  71 S8        30.04S
CHAMBERLAIN    CLEAR     79  56  45 SE8       30.00S
HURON          CLEAR     82  60  47 S9        29.98S
MADISON        FAIR      73  68  83 S7        30.05S
MITCHELL       CLEAR     81  62  52 S9        30.01S
SIOUX FALLS    PTCLDY    78  60  53 S9        30.05R
WINNER         FAIR      84  54  35 S9        30.02S
YANKTON        CLEAR     79  63  57 SE7       30.03R
$$

MNZ071-072-080-081-089-090-097-098-260300-
SOUTHWEST MINNESOTA

CITY           SKY/WX    TMP DP  RH WIND       PRES   REMARKS
FAIRMONT       CLEAR     77  66  69 SE3       30.05S
JACKSON        CLEAR     75  64  69 SW3       30.08R
LUVERNE        CLEAR     72  66  83 CALM      30.06S
MARSHALL       CLEAR     79  66  64 S6        30.03S
MONTEVIDEO     CLEAR     77  64  65 SW3       30.03S
REDWOOD FALLS  CLEAR     78  67  68 S5        30.02S
TRACY          CLEAR     77  66  69 S5        30.04F
WINDOM         CLEAR     79  66  65 CALM      30.06S
WORTHINGTON    CLEAR     76  65  68 MISG      30.08R
$$

IAZ001>003-012>014-020>022-031-032-NEZ013-014-SDZ071-260300-
NORTHWEST IOWA

CITY           SKY/WX    TMP DP  RH WIND       PRES   REMARKS
CHEROKEE       CLEAR     73  68  86 CALM      30.06R
DENISON        CLEAR     73  70  88 CALM      30.05R
ESTHERVILLE    CLEAR     73  69  87 CALM      30.06S
LE MARS        CLEAR     79  66  65 SE5       30.06R
SHELDON        CLEAR     73  70  88 CALM      30.06R
SIOUX CITY     CLEAR     79  66  64 SE5       30.05R
SPENCER        CLEAR     75  70  84 CALM      30.06S
STORM LAKE     CLEAR     73  66  78 SE3       30.08R
$$

ABBREVIATIONS USED IN REMARKS
   TC - TEMPERATURE IN CELSIUS
  WCI - WIND CHILL INDEX
   HX - HEAT INDEX
  VSB - VISIBILITY




USA.gov is the U.S. government's official web portal to all federal, state and local government web resources and services.